Lid_Strength_Index
-0 0 1 3 10 10 13 12 8 9 8 5 5 7 8 7 9 12 2 1 0 0 -1 -1 -1 -1 -1 -2 -2 -1 -1 -1 -1 -1 -1 -1 -1 -1 -1 -1 -1 -1 -1 -1 -1 -1 -1 -1 -1
-0 1 2 6 12 13 11 8 9 7 6 5 5 6 7 9 4 4 3 0 -0 -0 -0 -1 -1 -1 -1 -2 -2 -1 -1 -1 -1 -1 -1 -1 -1 -1 -1 -1 -1 -1 -1 -1 -1 -1 -1 -1 -1
0 1 6 10 10 12 12 8 7 6 5 5 6 5 6 7 4 3 1 0 -0 -0 -0 -1 -1 -2 -1 -2 -2 -2 -2 -1 -1 -1 -1 -1 -1 -1 -1 -1 -1 -1 -2 -2 -1 -1 -1 -1 -1
2 3 5 9 11 9 9 7 6 6 5 5 5 8 5 2 3 1 0 -0 0 0 -0 -1 -2 -2 -2 -1 -1 -1 -1 -1 -1 -1 -1 -1 -1 -1 -1 -1 -1 -1 -1 -1 -1 -1 -1 -1 -1
2 5 8 10 9 8 6 6 5 6 6 6 5 8 7 3 1 1 1 0 1 0 -0 -1 -1 -2 -1 -1 -1 -1 -1 -1 -1 -1 -1 -1 -1 -1 -1 -1 -1 -1 -1 -1 -1 -1 -1 -1 -1
6 6 9 11 9 7 7 5 5 6 6 6 6 7 7 2 2 1 0 0 0 0 -0 -1 -1 -2 -2 -1 -1 -1 -1 -1 -1 -1 -1 -1 -2 -1 -1 -1 -1 -1 -1 -1 -1 -1 -1 -1 -1
6 7 9 9 9 8 7 4 6 6 6 6 4 8 6 4 2 1 1 0 0 -0 -0 -1 -1 -1 -1 -1 -1 -1 -1 -1 -1 -1 -1 -1 -2 -1 -1 -1 -1 -1 -1 -1 -1 -1 -1 -1 -1
4 5 8 8 10 9 6 5 4 5 6 4 3 8 8 4 1 1 1 0 0 0 -0 -0 -1 -1 -1 -1 -1 -1 -1 -1 -1 -1 -1 -1 -1 -1 -1 -1 -1 -1 -1 -1 -1 -1 -1 -1 -1
3 7 9 9 9 8 6 6 4 3 5 4 4 4 3 2 1 2 2 1 1 1 1 -0 -0 -1 -1 -1 -1 -1 -1 -1 -1 -1 -1 -1 -1 -1 -1 -1 -1 -1 -1 -1 -1 -1 -1 -1 -1
5 8 8 6 6 7 6 6 5 5 5 6 5 3 2 2 2 3 3 3 2 2 1 0 -0 -0 -1 -0 -1 -1 -1 -1 -1 -1 -1 -2 -2 -2 -1 -2 -1 -1 -1 -1 -1 -2 -1 -1 -1
5 7 6 6 5 5 6 6 5 6 7 5 6 4 3 3 3 3 3 2 2 1 1 0 -0 -1 -0 -0 -1 -1 -0 -1 -1 -1 -2 -2 -1 -0 -1 -1 -1 -1 -1 -1 -1 -1 -1 -1 -1
6 5 5 5 4 5 5 4 6 5 5 4 4 3 3 3 3 3 3 2 2 1 1 0 -0 0 -0 -0 -1 -1 -0 -1 -0 -1 -1 -2 -1 -1 -0 -0 -1 -1 -1 -1 -1 -0 -1 -1 -1
6 5 5 4 4 5 4 5 6 5 4 3 3 3 3 3 3 2 2 1 1 1 1 1 -0 -0 -0 -0 -1 -0 -0 -0 -1 -1 -2 -0 -1 -0 -1 -1 -1 -1 -1 -0 -0 -0 -0 -0 -0
5 5 5 5 5 5 6 6 5 5 3 4 4 4 3 3 3 2 2 2 1 1 1 1 0 -0 -0 -1 -1 -1 -1 -2 -1 -2 -2 -2 -2 -1 -1 -1 -0 -1 -2 -1 -1 -0 0 -0 -0
4 8 7 5 5 6 6 8 7 4 4 5 4 4 3 3 2 3 2 2 1 1 1 1 0 -0 -0 -0 -0 -1 -1 -1 -1 -2 -2 -2 -2 -2 -1 -0 -0 -0 -1 -0 -0 0 -1 0 -0
6 8 13 7 6 6 7 11 6 4 5 5 5 4 4 3 3 2 2 2 1 1 1 0 0 0 -0 -0 -0 -1 -1 -1 -2 -1 -1 -1 -2 -2 -1 -0 -0 -1 -1 -1 -0 0 1 1 1
9 12 11 9 5 7 7 11 6 4 5 5 5 4 4 4 3 2 2 1 1 2 1 1 0 1 0 -0 -0 -0 -1 -1 -2 -2 -2 -2 -1 -2 -1 -0 -0 -1 -0 -0 0 0 1 1 1
12 13 11 10 6 6 7 8 6 5 5 5 5 5 4 4 3 2 2 1 1 1 0 1 1 0 0 0 0 -0 -0 -0 -1 -1 -1 -2 -2 -1 -1 -1 -1 -0 0 0 0 1 0 1 1
7 10 11 7 5 6 7 7 7 6 5 6 5 5 4 4 3 2 2 1 1 1 1 1 1 1 1 1 1 1 1 0 0 -0 -1 -1 -1 -1 -0 -0 -0 -0 0 0 0 1 1 1 1
7 7 8 7 5 6 8 9 9 9 6 5 5 5 4 4 3 3 2 2 2 2 1 1 1 1 0 1 1 1 1 0 -0 -0 -1 -1 -1 -1 -0 -0 0 -0 0 0 1 1 2 1 1
7 7 8 9 6 6 7 8 8 6 6 5 4 4 4 4 4 3 3 2 2 2 2 1 1 0 0 -0 0 0 0 -0 1 0 0 -0 -1 -1 -1 -1 -0 0 -0 1 0 1 1 3 1
8 6 6 7 8 10 7 12 9 7 7 6 5 5 4 4 3 3 3 3 3 2 2 1 1 1 0 0 1 0 1 3 2 -0 -0 0 -1 -1 -1 -1 -0 0 0 0 1 0 1 1 3
7 5 6 7 8 8 8 11 13 8 10 9 7 5 4 4 4 3 3 2 2 2 2 2 1 1 0 0 1 1 2 1 1 1 1 -0 -0 -1 -0 -1 -0 0 -0 -0 0 0 1 1 2
5 6 6 7 8 11 9 10 14 12 11 9 7 6 4 4 4 3 3 2 2 1 1 1 1 1 0 1 1 1 1 2 2 2 1 1 0 0 -0 -0 -0 -0 0 0 0 0 0 1 1
6 7 11 12 12 12 9 11 11 10 8 7 7 5 4 4 4 4 3 3 2 2 2 2 2 2 1 1 1 1 1 1 1 1 1 1 1 1 0 -0 -0 0 -0 -0 0 0 0 1 1
7 7 10 14 13 12 11 12 10 9 7 5 4 4 4 4 4 4 3 3 2 2 2 2 2 2 1 1 1 0 0 0 1 1 0 1 1 1 -0 -0 -0 -0 -0 -0 -0 0 0 0 1
7 8 6 9 9 10 9 9 8 7 7 5 5 5 4 4 4 4 3 3 3 3 2 2 2 1 1 1 1 1 0 0 1 0 0 0 0 0 -0 -0 -0 -0 -0 -0 -0 0 1 0 1
6 6 9 9 12 13 10 11 13 11 11 7 6 5 5 4 4 4 3 3 3 2 2 2 1 1 1 1 1 1 1 0 0 0 0 0 -0 -0 -0 -0 -0 0 0 -0 0 0 0 1 1
7 8 7 8 9 11 12 13 8 9 8 7 6 5 5 4 4 4 3 3 3 2 2 2 2 1 1 1 1 1 1 0 -0 0 0 -0 -0 -0 0 0 0 0 0 -0 0 0 0 1 1
6 7 7 10 10 9 10 10 6 7 6 6 6 5 4 4 4 3 3 3 3 3 2 2 2 2 1 1 1 1 0 0 0 0 0 -0 0 -0 -0 -0 -0 0 0 0 0 1 1 1 1